NIMBUS 2 DEB, 28617

Orbit data source: Space-Track

NIMBUS 2 DEB, 28617 is space debris in SSO originally from a launch on Sun, 15 May 1966 UTC launched from the Air Force Western Test Range (AFWTR). Debris objects in space refer to the collection of defunct objects orbiting the Earth. Examples of debris include non-operational satellites, rocket bodies, and fragments generated from explosions, collisions, or faulty payload assembly.

Loading next visibility...
Identifier
28617, 1966-040AG
Orbit
SSO
Country
Flag of USUS
Related business
Manufacturer
Unknown
Mission
Spacecraft
Bus & Motor
Unknown
Mass
Unknown
Launch date (UTC)
1966-05-15 (60 years ago)
Launch vehicle
Unknown
Launch site
Air Force Western Test Range (AFWTR)
Object type
Payload
Rocket body
Debris
Shape & HBR
Unknown shape, 0.1 m
Radar Cross Section
Small (<0.1 m²)

Expand to show TLE details & history
Last TLE update: 8 hours ago

TLE from 8 hours ago
0 NIMBUS 2 DEB
1 28617U 66040AG  26038.12471826  .00004562  00000-0  43543-2 0  9998
2 28617 100.4717 263.4873 0049726  20.1729 131.5395 13.80613195177096
Epoch: 2026-02-07T02:59Z
TLE epoch observation values (Epoch: 2026-02-07T02:59:35.657Z)
Latitude
27.40017°
Longitude
-93.19487°
Altitude
989.268 km
Speed
7.347 km/s
True Right ascension
05h 55m 49s
True Declination
27° 15' 52"
Sunlit
Object was in full shadow at epoch
Visualization orbit readout
Latitude
Unknown
Longitude
Unknown
Altitude
Unknown
Speed
Unknown
Apparent Right ascension
Unknown
Apparent Declination
Unknown
Sunlit
N/A
Visualization observer readout
Local Sidereal Time
13:15:25
Azimuth
Unknown
Elevation
Unknown
Doppler factor
Unknown
Orbital elements
Apogee altitude
995.5 km
Perigee altitude
922.53 km
Semi-major axis
7,337.152 km
Eccentricity
0.00497
Inclination
100.4717°
RAAN
263.4873°
Arg. of periapsis
20.1729°
True anomaly
131.96425°
Mean anomaly
131.5395°
Eccentric anomaly
131.75205°
Mean motion
3.45344 °/min
Orbital period
104.24 mins
BSTAR
0.0043543
Loading maneuver chart data...
Computing Atmospheric mass density...
Loading historical data...
Loading historical data...
Loading historical data...
Loading historical data...
Loading historical data...
Loading historical data...
Loading historical data...

Documentation

Showing up to 5 results
|